Weather History for Louisville Bowman, KY

Change the Weather History Date:

Saturday, September 21, 2013

  Actual Average Record
Temperature  
Mean Temperature 65 °F 67 °F  
Max Temperature 75 °F 78 °F 96 °F (2010)
Min Temperature 55 °F 57 °F 42 °F (1962)
Degree Days  
Heating Degree Days 0 2  
Month to date heating degree days 3 10  
Since 1 July heating degree days 3 10  
Cooling Degree Days 0 4  
Month to date cooling degree days 179 147  
Year to date cooling degree days 1382 1386  
Growing Degree Days 16 (Base 50)    
Moisture  
Dew Point 60 °F    
Average Humidity 71    
Maximum Humidity 100    
Minimum Humidity 41    
Precipitation  
Precipitation 0.62 in 0.11 in 4.30 in (1979)
Month to date precipitation 3.33 2.09  
Year to date precipitation 40.39 33.63  
Sea Level Pressure  
Sea Level Pressure 29.81 in    
Wind  
Wind Speed 6 mph (NW)    
Max Wind Speed 17 mph    
Max Gust Speed 22 mph    
Visibility 8 miles    
Events Rain    
T = Trace of Precipitation, MM = Missing Value Source: NWS Daily Summary

Daily Weather History Graph

Daily Weather History Graph

Search for Another Location

Airport:

Trip Planner

Search our weather history database for the weather conditions in past years. The results will help you decide how hot, cold, wet, or windy it might be!

Date:

Astronomy

Sep. 21, 2013 Rise Set
Actual Time 7:29 AM EDT 7:40 PM EDT
Civil Twilight 7:03 AM EDT 8:07 PM EDT
Nautical Twilight 6:32 AM EDT 8:37 PM EDT
Astronomical Twilight 6:01 AM EDT 9:09 PM EDT
Moon 8:54 PM EDT (9/21) 9:44 AM EDT (9/21)
Length of Visible Light 13h 03m
Length of Day
12h 11m
Waning Gibbous, 94% of the Moon is Illuminated
Sep 21
Waning Gibbous
Sep 26
Last Quarter
Oct 4
New
Oct 11
First Quarter
Oct 18
Full

Hourly Weather History & Observations

Time (EDT) Temp. Dew Point Humidity Pressure Visibility Wind Dir Wind Speed Gust Speed Precip Events Conditions
12:24 AM 68.0 °F 66.2 °F 94% 29.84 in 3.0 mi NW 3.5 mph - 0.07 in Rain Rain
12:53 AM 68.0 °F 66.9 °F 96% 29.82 in 2.5 mi West 3.5 mph - 0.16 in Rain Heavy Rain
1:09 AM 68.0 °F 66.2 °F 94% 29.84 in 2.0 mi South 3.5 mph - 0.08 in Rain Heavy Rain
1:20 AM 68.0 °F 66.2 °F 94% 29.84 in 3.0 mi SSW 4.6 mph - 0.12 in Rain Heavy Rain
1:53 AM 66.9 °F 66.9 °F 100% 29.81 in 4.0 mi Calm Calm - 0.20 in Rain Rain
2:06 AM 68.0 °F 66.2 °F 94% 29.81 in 4.0 mi Calm Calm - 0.02 in Rain Rain
2:27 AM 66.2 °F 66.2 °F 100% 29.81 in 3.0 mi Calm Calm - 0.06 in Rain Rain
2:42 AM 68.0 °F 66.2 °F 94% 29.81 in 3.0 mi Calm Calm - 0.10 in Rain Rain
2:53 AM 68.0 °F 66.9 °F 96% 29.79 in 3.0 mi Calm Calm - 0.13 in Rain Rain
3:08 AM 68.0 °F 66.2 °F 94% 29.79 in 4.0 mi Calm Calm - 0.03 in Rain Rain
3:39 AM 68.0 °F 66.2 °F 94% 29.77 in 5.0 mi Calm Calm - 0.07 in Rain Rain
3:49 AM 68.0 °F 66.2 °F 94% 29.77 in 4.0 mi Calm Calm - 0.09 in Rain Rain
3:53 AM 68.0 °F 66.9 °F 96% 29.76 in 4.0 mi Calm Calm - 0.09 in Rain Rain
4:27 AM 68.0 °F 66.2 °F 94% 29.77 in 2.0 mi Calm Calm - 0.09 in Rain Heavy Rain
4:36 AM 66.2 °F 66.2 °F 100% 29.76 in 3.0 mi WNW 3.5 mph - 0.12 in Rain Rain
4:53 AM 66.9 °F 66.0 °F 97% 29.75 in 4.0 mi NW 3.5 mph - 0.15 in Rain Rain
5:25 AM 66.2 °F 66.2 °F 100% 29.75 in 9.0 mi NW 3.5 mph - 0.02 in Rain Light Rain
5:41 AM 64.4 °F 60.8 °F 88% 29.76 in 10.0 mi NNW 11.5 mph 21.9 mph 0.03 in Rain Light Rain
5:51 AM 62.6 °F 60.8 °F 94% 29.76 in 10.0 mi North 11.5 mph 21.9 mph 0.03 in Rain Light Rain
5:53 AM 63.0 °F 61.0 °F 93% 29.75 in 10.0 mi North 10.4 mph 21.9 mph 0.03 in Rain Light Rain
6:31 AM 62.6 °F 60.8 °F 94% 29.77 in 8.0 mi NNW 8.1 mph - 0.03 in Rain Light Rain
6:43 AM 62.6 °F 60.8 °F 94% 29.78 in 10.0 mi NW 10.4 mph - 0.03 in Rain Light Rain
6:50 AM 62.6 °F 60.8 °F 94% 29.78 in 10.0 mi NNW 8.1 mph - 0.03 in Rain Light Rain
6:53 AM 63.0 °F 61.0 °F 93% 29.77 in 10.0 mi NNW 10.4 mph - 0.03 in   Overcast
7:21 AM 62.6 °F 59.0 °F 88% 29.79 in 9.0 mi NNW 11.5 mph 18.4 mph 0.01 in Rain Light Rain
7:32 AM 62.6 °F 59.0 °F 88% 29.79 in 10.0 mi NNW 5.8 mph - 0.01 in   Overcast
7:47 AM 62.6 °F 60.8 °F 94% 29.80 in 10.0 mi NNW 5.8 mph - 0.01 in   Overcast
7:53 AM 62.1 °F 60.1 °F 93% 29.80 in 10.0 mi NW 8.1 mph - 0.01 in   Overcast
8:32 AM 62.6 °F 59.0 °F 88% 29.82 in 10.0 mi NW 8.1 mph - N/A   Scattered Clouds
8:53 AM 62.1 °F 57.9 °F 86% 29.81 in 10.0 mi NW 8.1 mph - N/A   Partly Cloudy
9:53 AM 61.0 °F 57.0 °F 87% 29.83 in 10.0 mi NW 8.1 mph - N/A   Partly Cloudy
10:53 AM 64.0 °F 55.9 °F 75% 29.84 in 10.0 mi NW 12.7 mph - N/A   Partly Cloudy
11:53 AM 64.9 °F 55.0 °F 70% 29.84 in 10.0 mi NW 11.5 mph - N/A   Mostly Cloudy
12:53 PM 68.0 °F 55.9 °F 65% 29.83 in 10.0 mi North 8.1 mph - N/A   Scattered Clouds
1:53 PM 70.0 °F 54.0 °F 57% 29.83 in 10.0 mi NW 8.1 mph 17.3 mph N/A   Partly Cloudy
2:53 PM 72.0 °F 48.9 °F 44% 29.83 in 10.0 mi NNW 10.4 mph 17.3 mph N/A   Scattered Clouds
3:53 PM 73.0 °F 48.0 °F 41% 29.81 in 10.0 mi NW 9.2 mph - N/A   Partly Cloudy
4:53 PM 71.1 °F 48.0 °F 44% 29.82 in 10.0 mi NNW 6.9 mph - N/A   Partly Cloudy
5:53 PM 72.0 °F 48.0 °F 43% 29.82 in 10.0 mi NNW 10.4 mph - N/A   Partly Cloudy
6:53 PM 69.1 °F 48.9 °F 49% 29.83 in 10.0 mi NW 5.8 mph - N/A   Clear
7:53 PM 66.9 °F 48.9 °F 52% 29.84 in 10.0 mi NW 4.6 mph - N/A   Clear
8:53 PM 63.0 °F 51.1 °F 65% 29.86 in 10.0 mi NW 3.5 mph - N/A   Clear
9:53 PM 62.1 °F 51.1 °F 67% 29.87 in 10.0 mi NW 3.5 mph - N/A   Clear
10:53 PM 60.1 °F 51.1 °F 72% 29.88 in 10.0 mi Calm Calm - N/A   Clear
11:53 PM 57.9 °F 51.1 °F 78% 29.88 in 10.0 mi Calm Calm - N/A   Clear